Stations météo

Publicité
Montauban, France (7540): Température de l'air & dewpoint: 11.11.2018 18:00:00 - 17.11.2018 18:00:00 (CET)Montauban, France (7540): Température de l'air 5cm: 11.11.2018 18:00:00 - 17.11.2018 18:00:00 (CET)Montauban, France (7540): Température de l'air -20cm & Température de l'air -100cm: 11.11.2018 18:00:00 - 17.11.2018 18:00:00 (CET)Montauban, France (7540): Vitesse du vent & gusts: 11.11.2018 18:00:00 - 17.11.2018 18:00:00 (CET)Montauban, France (7540): Direction du vent: 11.11.2018 18:00:00 - 17.11.2018 18:00:00 (CET)Montauban, France (7540): reduced air pressure: 11.11.2018 18:00:00 - 17.11.2018 18:00:00 (CET)Montauban, France (7540): visibility: 11.11.2018 18:00:00 - 17.11.2018 18:00:00 (CET)Montauban, France (7540): Ensoleillement: 11.11.2018 18:00:00 - 17.11.2018 18:00:00 (CET)Montauban, France (7540): Quantités de précipitations: 11.11.2018 18:00:00 - 17.11.2018 18:00:00 (CET)
Date & Time tt [°C] td [°C] tt 5cm [°C] tt -20cm [°C] tt -100cm [°C] ff [km/h] ff [knt] fx [km/h] fx [knt] dd ppp [hPa] vv [km] sd [min] rr [mm]
17.11.2018 18:00:00 13,1 8,4 12,4 13,5 15,5 16 9 27 15 SE 1014,9 20 0 0,0
17.11.2018 17:00:00 14,3 9,1 13,4 13,4 15,5 14 8 27 15 SE 1014,9 20 0 0,0
17.11.2018 16:00:00 15,8 9,5 15,3 13,2 15,5 16 9 26 14 SE 1014,7 20 20 0,0
17.11.2018 15:00:00 17,7 10,3 17,0 13,2 15,6 8 4 17 9 SE 1014,8 20 19 0,0
17.11.2018 14:00:00 17,3 10,2 17,5 13,0 15,5 9 5 19 11 SE 1015,3 20 42 0,0
17.11.2018 13:00:00 17,3 9,5 20,0 13,0 15,6 11 6 20 11 SE 1016,0 20 60 0,0
17.11.2018 12:00:00 16,5 10,3 18,3 13,0 15,5 8 5 16 9 ESE 1016,8 20 60 0,0
17.11.2018 11:00:00 14,0 10,6 16,8 13,1 15,5 8 4 13 7 ENE 1017,8 20 60 0,0
17.11.2018 10:00:00 11,5 9,9 9,8 13,2 15,6 5 3 8 5 E 1018,2 13 60 0,0
17.11.2018 09:00:00 9,0 8,5 3,9 13,3 15,5 4 2 9 5 E 1018,4 7 44 0,0
17.11.2018 08:00:00 7,0 6,4 3,6 13,4 15,6 5 3 11 6 E 1018,5 0,8 0 0,0
17.11.2018 07:00:00 6,4 5,8 3,2 13,4 15,6 0 0 6 3 N 1018,6 1,5 0 0,0
17.11.2018 06:00:00 7,2 6,6 3,7 13,5 15,6 2 1 7 4 E 1018,6 0,4 0 0,0
17.11.2018 05:00:00 7,6 6,8 4,2 13,6 15,6 0 0 9 5 N 1018,9 0,5 0 0,0
17.11.2018 04:00:00 8,4 7,6 6,1 13,7 15,6 6 3 11 6 E 1019,3 6 0 0,0
17.11.2018 03:00:00 8,2 7,4 4,7 13,8 15,6 6 3 8 5 E 1019,7 4,7 0 0,0
17.11.2018 02:00:00 9,3 8,4 8,1 13,9 15,6 5 3 12 6 E 1019,7 8 0 0,0
17.11.2018 01:00:00 9,9 9,1 5,8 13,9 15,6 8 4 11 6 E 1019,9 9 0 0,0
17.11.2018 00:00:00 9,2 8,0 6,4 14,0 15,6 3 1 7 4 ENE 1020,0 5 0 0,0
16.11.2018 23:00:00 10,9 9,3 7,7 14,0 15,6 4 2 8 5 ENE 1020,1 11 0 0,0
16.11.2018 22:00:00 11,9 9,6 9,0 14,1 15,6 5 3 9 5 ENE 1020,1 16 0 0,0
16.11.2018 21:00:00 12,4 9,6 9,1 14,1 15,6 4 2 14 8 E 1020,0 18 0 0,0
16.11.2018 20:00:00 13,1 9,9 11,0 14,0 15,6 8 5 14 7 SSE 1020,0 20 0 0,0
16.11.2018 19:00:00 14,1 10,3 11,0 13,9 15,6 9 5 14 7 SE 1019,8 20 0 0,0
16.11.2018 18:00:00 14,5 10,7 12,4 13,8 15,6 11 6 17 9 SSE 1019,9 20 0 0,0
16.11.2018 17:00:00 16,8 11,3 15,3 13,7 15,6 10 5 20 11 SE 1019,7 20 0 0,0
16.11.2018 16:00:00 19,1 11,6 19,5 13,5 15,6 11 6 17 9 SSE 1019,7 20 37 0,0
16.11.2018 15:00:00 19,6 11,6 20,1 13,4 15,6 7 4 19 10 ESE 1019,8 19 56 0,0
16.11.2018 14:00:00 19,1 11,1 22,3 13,3 15,6 13 7 19 10 SE 1020,2 20 60 0,0
16.11.2018 13:00:00 19,0 11,8 22,2 13,2 15,6 10 5 17 9 SE 1020,6 20 60 0,0
16.11.2018 12:00:00 17,4 12,7 19,5 13,2 15,6 3 2 8 4 ESE 1021,4 18 60 0,0
16.11.2018 11:00:00 14,3 11,4 16,1 13,3 15,6 6 3 11 6 ENE 1022,0 16 60 0,0
16.11.2018 10:00:00 11,8 10,2 10,1 13,4 15,6 8 4 11 6 ENE 1022,1 13 60 0,0
16.11.2018 09:00:00 9,7 9,2 4,6 13,5 15,6 5 3 11 6 E 1022,2 8 48 0,0
16.11.2018 08:00:00 6,5 5,9 3,7 13,6 15,6 2 1 4 2 SSE 1022,0 1,2 0 0,0
16.11.2018 07:00:00 6,9 6,3 3,8 13,7 15,6 2 1 4 2 E 1021,7 3,2 0 0,0
16.11.2018 06:00:00 7,0 6,4 3,9 13,8 15,6 0 0 5 3 N 1021,5 7 0 0,0
16.11.2018 05:00:00 6,7 6,0 4,2 13,8 15,6 2 1 4 2 N 1021,7 9 0 0,0
16.11.2018 04:00:00 7,8 7,2 5,1 13,9 15,6 0 0 7 4 N 1021,7 7 0 0,0
16.11.2018 03:00:00 8,0 7,2 5,4 14,1 15,6 2 1 7 4 E 1021,7 6 0 0,0
16.11.2018 02:00:00 8,7 7,9 5,8 14,2 15,6 4 2 9 5 ESE 1021,8 6 0 0,0
16.11.2018 01:00:00 8,6 7,5 6,4 14,2 15,6 4 2 10 5 E 1021,9 6 0 0,0
16.11.2018 00:00:00 9,4 8,5 6,3 14,3 15,6 0 0 7 4 N 1022,2 6 0 0,0
15.11.2018 23:00:00 9,9 8,7 7,0 14,3 15,6 3 2 7 4 E 1021,6 6 0 0,0
15.11.2018 22:00:00 10,9 9,5 8,0 14,4 15,6 3 1 8 5 E 1021,5 9 0 0,0
15.11.2018 21:00:00 12,9 10,4 9,3 14,3 15,6 5 3 8 4 E 1020,8 14 0 0,0
15.11.2018 20:00:00 15,4 10,8 12,5 14,3 15,6 4 2 18 10 E 1020,3 20 0 0,0
15.11.2018 19:00:00 15,7 11,3 13,4 14,2 15,6 10 6 16 9 SE 1020,0 20 0 0,0
15.11.2018 18:00:00 16,5 11,0 14,0 14,1 15,6 8 4 15 8 SE 1019,7 20 4 0,0
15.11.2018 17:00:00 18,7 11,7 18,2 14,0 15,6 6 3 18 10 SE 1019,5 20 60 0,0
15.11.2018 16:00:00 20,1 11,6 21,2 13,9 15,6 12 6 27 15 SE 1019,3 19 60 0,0
15.11.2018 15:00:00 20,6 11,2 21,8 13,8 15,6 15 8 30 16 SSE 1019,5 20 60 0,0
15.11.2018 14:00:00 20,7 11,6 22,4 13,7 15,6 18 10 32 18 SSE 1019,5 20 58 0,0
15.11.2018 13:00:00 20,1 12,3 20,9 13,6 15,6 22 12 36 19 S 1020,0 20 38 0,0
15.11.2018 12:00:00 20,2 13,2 22,5 13,6 15,6 19 10 31 17 S 1020,2 20 60 0,0
15.11.2018 11:00:00 18,2 14,3 17,8 13,6 15,6 5 3 14 8 S 1020,3 20 53 0,0
15.11.2018 10:00:00 13,6 12,5 11,7 13,7 15,6 0 0 6 3 N 1020,3 14 60 0,0
15.11.2018 09:00:00 10,0 9,4 6,1 13,7 15,6 0 0 5 3 N 1020,2 7 47 0,0
15.11.2018 08:00:00 7,6 7,0 5,1 13,8 15,6 0 0 3 2 N 1019,8 8 0 0,0
15.11.2018 07:00:00 7,2 6,6 4,9 14,0 15,6 0 0 5 3 N 1019,4 10 0 0,0
15.11.2018 06:00:00 7,4 6,8 4,9 14,1 15,6 0 0 3 2 N 1019,3 11 0 0,0
15.11.2018 05:00:00 7,8 7,2 5,3 14,2 15,6 2 1 5 3 E 1019,4 8 0 0,0
15.11.2018 04:00:00 7,9 7,1 5,2 14,3 15,6 2 1 6 4 E 1019,4 4,8 0 0,0
15.11.2018 03:00:00 7,7 6,9 5,6 14,3 15,6 2 1 6 3 SE 1020,0 8 0 0,0
15.11.2018 02:00:00 8,4 7,6 5,8 14,4 15,6 0 0 4 2 N 1020,3 4,7 0 0,0
15.11.2018 01:00:00 9,4 8,5 6,2 14,5 15,6 3 2 4 2 E 1020,5 5 0 0,0
15.11.2018 00:00:00 10,2 9,1 7,5 14,6 15,6 2 1 9 5 E 1020,7 9 0 0,0
14.11.2018 23:00:00 11,7 9,9 8,8 14,6 15,6 5 3 10 5 E 1020,9 13 0 0,0
14.11.2018 22:00:00 13,4 10,9 9,1 14,6 15,6 8 4 10 6 E 1021,1 19 0 0,0
14.11.2018 21:00:00 13,6 10,9 9,5 14,6 15,6 5 3 10 6 ESE 1021,1 20 0 0,0
14.11.2018 20:00:00 15,9 11,5 14,0 14,6 15,6 8 4 22 12 ESE 1021,2 20 0 0,0
14.11.2018 19:00:00 16,9 12,0 15,3 14,5 15,5 12 7 19 11 SE 1021,4 20 0 0,0
14.11.2018 18:00:00 17,4 11,9 16,0 14,5 15,6 13 7 24 13 SE 1021,2 20 0 0,0
14.11.2018 17:00:00 18,2 12,2 17,5 14,3 15,5 11 6 28 15 SE 1021,3 20 0 0,0
14.11.2018 16:00:00 19,2 12,7 19,1 14,2 15,5 16 9 28 15 SE 1021,4 20 40 0,0
14.11.2018 15:00:00 20,0 13,0 20,1 14,1 15,5 16 9 35 19 SE 1021,4 20 19 0,0
14.11.2018 14:00:00 20,6 13,5 21,6 14,0 15,5 11 6 31 17 SE 1021,4 20 36 0,0
14.11.2018 13:00:00 19,9 14,5 20,8 13,9 15,5 14 8 22 12 SSE 1022,1 20 16 0,0
14.11.2018 12:00:00 17,8 13,7 19,4 13,9 15,5 8 4 13 7 ENE 1023,0 20 53 0,0
14.11.2018 11:00:00 15,3 13,1 18,0 14,0 15,5 5 3 10 6 ENE 1023,8 19 50 0,0
14.11.2018 10:00:00 13,6 13,1 11,6 14,1 15,5 3 2 9 5 ESE 1024,0 9 60 0,0
14.11.2018 09:00:00 9,6 9,1 5,7 14,2 15,5 5 3 9 5 E 1024,3 3,2 33 0,0
14.11.2018 08:00:00 7,3 6,9 5,4 14,2 15,5 0 0 5 3 N 1024,4 0,3 0 0,0
14.11.2018 07:00:00 7,4 7,0 5,8 14,3 15,5 0 0 3 2 N 1024,4 0,2 0 0,0
14.11.2018 06:00:00 8,2 7,8 7,5 14,4 15,5 0 0 6 3 N 1024,5 - 0 0,0
14.11.2018 05:00:00 9,0 8,5 8,8 14,4 15,5 0 0 5 3 N 1024,7 - 0 0,0
14.11.2018 04:00:00 9,6 9,1 8,9 14,5 15,5 2 1 6 3 NE 1025,2 0,2 0 0,2
14.11.2018 03:00:00 9,3 8,7 8,8 14,6 15,5 0 0 4 2 N 1025,9 0,1 0 0,0
14.11.2018 02:00:00 9,2 8,6 7,0 14,6 15,5 3 2 6 4 ESE 1026,1 0,3 0 0,0
14.11.2018 01:00:00 9,8 9,0 7,7 14,7 15,5 3 2 6 3 E 1027,0 1,4 0 0,0
14.11.2018 00:00:00 10,5 9,7 8,6 14,7 15,5 4 2 13 7 ESE 1027,4 1,1 0 0,0
13.11.2018 23:00:00 12,0 11,1 9,1 14,8 15,5 5 3 9 5 NE 1027,5 11 0 0,0
13.11.2018 22:00:00 12,6 11,5 10,5 14,8 15,5 0 0 5 3 N 1027,5 20 0 0,0
13.11.2018 21:00:00 13,1 11,8 9,9 14,8 15,5 4 2 8 4 E 1027,7 20 0 0,0
13.11.2018 20:00:00 13,3 11,2 10,0 14,7 15,5 5 3 7 4 SSW 1027,9 20 0 0,0
13.11.2018 19:00:00 15,1 12,2 14,1 14,7 15,5 0 0 6 3 N 1027,8 20 0 0,0
13.11.2018 18:00:00 15,6 12,0 14,6 14,6 15,5 3 1 5 3 ESE 1027,4 20 0 0,0
13.11.2018 17:00:00 16,4 11,8 16,2 14,5 15,4 2 1 7 4 NE 1027,5 10 0 0,0
13.11.2018 16:00:00 16,5 11,8 17,1 14,4 15,5 5 3 11 6 E 1027,3 20 25 0,0
13.11.2018 15:00:00 16,4 11,8 17,5 14,3 15,5 6 3 11 6 E 1027,2 19 44 0,0
13.11.2018 14:00:00 16,1 11,5 18,7 14,2 15,5 5 3 9 5 NE 1027,4 20 8 0,0
13.11.2018 13:00:00 15,5 11,9 17,6 14,2 15,5 0 0 9 5 N 1028,0 20 0 0,0
13.11.2018 12:00:00 14,2 11,5 14,7 14,2 15,5 5 3 13 7 N 1028,7 20 0 0,0
13.11.2018 11:00:00 12,9 11,3 13,5 14,2 15,5 6 4 14 7 NNW 1029,1 20 0 0,0
13.11.2018 10:00:00 12,3 11,4 11,7 14,2 15,5 6 4 13 7 WNW 1028,6 20 0 0,0
13.11.2018 09:00:00 11,5 10,6 11,4 14,2 15,5 6 3 13 7 W 1028,0 20 0 0,0
13.11.2018 08:00:00 11,6 10,7 11,4 14,3 15,5 8 4 14 7 WNW 1027,2 20 0 0,0
13.11.2018 07:00:00 12,0 10,9 11,5 14,3 15,5 8 4 16 9 WNW 1026,6 20 0 0,0
13.11.2018 06:00:00 12,6 11,2 12,0 14,3 15,5 8 4 16 9 WNW 1026,1 20 0 0,0
13.11.2018 05:00:00 13,2 11,6 12,6 14,3 15,4 6 3 9 5 WNW 1025,4 20 0 0,0
13.11.2018 04:00:00 13,5 11,5 12,6 14,3 15,5 3 1 10 6 NNE 1025,1 20 0 0,0
13.11.2018 03:00:00 13,7 12,1 12,9 14,3 15,5 6 4 11 6 N 1024,8 20 0 0,4
13.11.2018 02:00:00 14,2 12,2 13,7 14,3 15,5 5 3 17 9 N 1023,5 19 0 0,0
13.11.2018 01:00:00 14,6 12,6 14,0 14,3 15,5 6 3 15 8 NNW 1022,4 20 0 0,0
13.11.2018 00:00:00 14,5 12,7 14,2 14,3 15,5 5 3 10 6 WNW 1021,3 20 0 0,0
12.11.2018 23:00:00 14,7 12,6 14,3 14,3 15,5 8 4 15 8 NW 1020,5 20 0 0,0
12.11.2018 22:00:00 15,0 12,5 14,6 14,3 15,5 6 4 13 7 W 1019,8 20 0 0,0
12.11.2018 21:00:00 15,4 12,7 14,1 14,3 15,5 5 3 9 5 W 1019,0 20 0 0,0
12.11.2018 20:00:00 14,8 13,2 13,2 14,2 15,5 3 2 9 5 SSW 1018,5 16 0 0,0
12.11.2018 19:00:00 15,3 13,5 11,8 14,1 15,5 7 4 11 6 SW 1018,0 16 0 0,0
12.11.2018 18:00:00 16,7 13,8 13,4 14,1 15,5 5 3 8 4 WSW 1017,2 17 0 0,0
12.11.2018 17:00:00 18,4 13,7 17,2 13,9 15,5 4 2 14 8 NW 1016,7 20 4 0,0
12.11.2018 16:00:00 19,8 13,0 19,5 13,7 15,5 0 0 6 4 N 1016,4 20 0 0,0
12.11.2018 15:00:00 20,5 11,9 21,1 13,6 15,5 4 2 14 8 S 1016,3 9 25 0,0
12.11.2018 14:00:00 21,7 12,0 24,7 13,4 15,5 6 3 16 9 SSW 1016,1 20 60 0,0
12.11.2018 13:00:00 20,6 12,6 23,3 13,3 15,5 8 4 16 8 W 1016,2 20 60 0,0
12.11.2018 12:00:00 19,8 12,5 23,2 13,3 15,5 6 3 14 7 W 1016,3 20 60 0,0
12.11.2018 11:00:00 19,5 12,7 20,9 13,3 15,5 0 0 8 5 N 1015,9 20 60 0,0
12.11.2018 10:00:00 16,6 12,1 15,8 13,3 15,5 5 3 10 5 NW 1015,5 20 43 0,0
12.11.2018 09:00:00 13,8 11,3 12,4 13,3 15,5 2 1 22 12 NW 1015,0 20 18 0,0
12.11.2018 08:00:00 14,3 10,5 12,5 13,3 15,5 9 5 31 17 W 1013,1 20 0 0,0
12.11.2018 07:00:00 16,6 11,5 12,3 13,4 15,5 22 12 36 20 SSE 1011,3 20 0 0,0
12.11.2018 06:00:00 15,6 11,6 12,1 13,4 15,5 4 2 19 10 ESE 1010,9 20 0 0,0
12.11.2018 05:00:00 15,6 12,2 11,1 13,4 15,5 9 5 17 9 SE 1010,8 20 0 0,0
12.11.2018 04:00:00 16,5 12,5 12,7 13,5 15,5 6 3 16 9 SSE 1010,3 20 0 0,0
12.11.2018 03:00:00 16,2 12,4 14,1 13,5 15,5 9 5 28 15 ESE 1009,8 20 0 0,0
12.11.2018 02:00:00 16,8 12,7 13,3 13,6 15,5 18 10 41 22 SSE 1009,4 20 0 0,0
12.11.2018 01:00:00 15,8 13,3 7,6 13,7 15,5 17 9 34 18 SSE 1009,6 20 0 0,0
12.11.2018 00:00:00 9,8 9,0 6,7 13,7 15,5 2 1 5 3 W 1010,1 18 0 0,0
11.11.2018 23:00:00 8,7 7,8 6,6 13,7 15,5 4 2 7 4 SE 1010,3 18 0 0,0
11.11.2018 22:00:00 9,5 8,6 7,3 13,8 15,5 5 3 6 4 SSE 1010,7 11 0 0,0
11.11.2018 21:00:00 11,2 10,1 8,0 13,7 15,5 2 1 7 4 NNE 1010,7 20 0 0,0
11.11.2018 20:00:00 13,0 11,7 9,4 13,7 15,5 0 0 5 3 N 1011,1 20 0 0,0
11.11.2018 19:00:00 14,8 12,3 12,8 13,6 15,5 0 0 7 4 N 1011,1 19 0 0,0
11.11.2018 18:00:00 16,3 12,1 13,3 13,5 15,5 5 3 11 6 S 1010,9 20 0 0,0

tt = Température de l'air
td = dewpoint
tt 5cm = Température de l'air 5cm
tt -20cm = Température de l'air -20cm
tt -100cm = Température de l'air -100cm
ff = Vitesse du vent
fx = gusts
dd = Direction du vent
ppp = reduced air pressure
vv = visibility
sd = Ensoleillement
rr = Quantités de précipitations

stations d'obs. à proximité